Regional Weather Roundup
Issued by NWS

Home | Current Version | Previous Version | Text Only | Print | Product List | Glossary On
Versions: 1 2 3 4 5 6 7 8 9 10 11 12 13 14 15 16 17 18 19 20 21 22 23 24 25 26 27
000
ASUS42 KKEY 180310
RWRKEY

FLORIDA REGIONAL WEATHER ROUNDUP FOR THE FLORIDA KEYS
NATIONAL WEATHER SERVICE KEY WEST FLORIDA
1100 PM EDT THU APR 17 2014

...SOUTH FLORIDA AND THE KEYS...

CITY           SKY/WX    TMP DP  RH WIND       PRES   REMARKS
FORT MYERS     CLOUDY    74  70  87 E10       30.10S
SW REGIONAL AP CLOUDY    72  70  93 E12       30.11S
NAPLES         CLOUDY    74  74 100 E14       30.09R
MIAMI          PTCLDY    78  71  79 E17       30.10R
WEST KENDALL   LGT RAIN  77  72  84 E13       30.09S
HOMESTEAD      MOCLDY    76  69  77 E10       30.09R
MARATHON       MOCLDY    79  73  82 E12G23    30.06S
BOCA CHICA NAS PTCLDY    79  73  82 E18       30.05S
KEY WEST INTL  PTCLDY    79  73  82 E13G21    30.06R

...INTERNATIONAL WEATHER...

CITY           SKY/WX    TMP DP  RH WIND       PRES   REMARKS
NASSAU BAHAMAS PTCLDY    77  72  83 E7        30.11R
CANCUN MEXICO  PTCLDY    77  73  88 CALM      29.97R
COZUMEL MEXICO PTCLDY    72  72 100 CALM      29.97R

ADJACENT COASTAL WATERS...

STATION/POSITION TIME  SKY/WX   TEMP    WIND        PRES    WAVE
                                AIR SEA DIR/SP/G            HT/PER
                 (UTC)          (F)     (DEG/KT/KT) (MB)    (FT/S)
PULASKI SHOAL LI NOT AVBL
SAND KEY         NOT AVBL
SOMBRERO KEY     0300            78      80/ 21/ 23 1018.0R
LONG KEY         0300            76 81  130/ 25/ 31 1018.9R
MOLASSES REEF    0300            76 78   90/ 17/ 20 1018.4R
FOWEY ROCKS      0300            78 78   90/ 17/ 19 1019.0R
Buoy 42080       NOT AVBL

$$



USA.gov is the U.S. government's official web portal to all federal, state and local government web resources and services.